Location: Unspecified
(0.0000°N, 0.0000°E)
Time: 12:05:39
(UTC+00:00)

LightSail 2 - Pass Details

Date: 10 December 2019
Orbit: 696 x 729 km, 24.0° (Epoch: 10 December)

Event Time Altitude Azimuth Distance (km) Brightness Sun altitude
Rises 19:32:25 0° 318° (NW) 3,092 8.7 -22.8°
Reaches altitude 10° 19:35:25 10° 334° (NNW) 2,167 7.6 -23.5°
Enters shadow 19:36:43 15° 346° (NNW) 1,847 7.2 -23.8°
